Notices

What's New in latest Release from April 7th, 2021:

- Updated Glossary, including Speed of Maximum Gust, and Total Hourly Precipitation

- Updated national and regional climate services offices contacts and prices information

- Addition of station inventory lists for 1981-2010, 1971-2000, and 1961-1990 Normals.

If you haven't already, please take our survey and provide feedback about our website: https://eccc.sondage-survey.ca/f/LanguageSelection.aspx?s=442ca660-fcf1-47c0-95a9-59707d6fd709

Hourly Data Report for December 06, 2020

MUSKOKA
ONTARIO
Current Station Operator: NAVCAN

44°58'29.000" N
79°18'12.000" W
281.90 m
6115529
71532
YQA

Download Data

Hourly Data (December 2020)
Hourly Data Report for December 6, 2020
TIME
LST
Temp Definition
°C
Dew Point Definition
°C
Rel Hum Definition
%
Precip. Amount Definition
mm

Wind Dir Definition
10's deg

Wind Spd Definition
km/h
Visibility Definition
km
Stn Press Definition
kPa
Hmdx Definition


Wind Chill Definition


Weather Definition


00:00 -4.3 -6.3 86 LegendMM 33 15 16.1 98.28   -10 LegendNANA
01:00 -4.5 -6.5 86 LegendMM 34 15 16.1 98.27   -10 LegendNANA
02:00 -4.6 -6.4 88 LegendMM 35 13 16.1 98.26   -10 LegendNANA
03:00 -5.0 -7.0 86 LegendMM 34 15 16.1 98.29   -11 LegendNANA
04:00 -6.8 -8.6 87 LegendMM 34 9 16.1 98.30   -11 LegendNANA
05:00 -7.2 -8.7 89 LegendMM 33 11 16.1 98.29   -12 LegendNANA
06:00 -7.1 -8.6 89 LegendMM 32 13 16.1 98.29   -13 LegendNANA
07:00 -7.1 -8.6 89 LegendMM 32 13 16.1 98.29   -13 LegendNANA
08:00 -7.7 -9.3 88 LegendMM 31 13 16.1 98.27   -13 LegendNANA
09:00 -8.2 -10.1 86 LegendMM 33 15 16.1 98.28   -15 LegendNANA
10:00 -6.7 -9.6 80 LegendMM 34 13 16.1 98.30   -12 LegendNANA
11:00 -5.7 -9.3 76 LegendMM 34 15 16.1 98.25   -11 LegendNANA
12:00 -4.4 -8.9 71 LegendMM 34 17 16.1 98.16   -10 LegendNANA
13:00 -3.8 -8.2 72 LegendMM 34 15 16.1 98.11   -9 LegendNANA
14:00 -3.6 -8.3 70 LegendMM 32 18 16.1 98.08   -9 LegendNANA
15:00 -3.5 -8.2 70 356.9 33 13 16.1 98.07   -8 LegendNANA
16:00 -3.7 -8.2 71 0.0 32 11 16.1 98.09   -8 LegendNANA
17:00 -5.0 -8.4 77 0.0 32 13 16.1 98.11   -10 LegendNANA
18:00 -5.4 -8.3 81 0.0 33 13 16.1 98.14   -11 LegendNANA
19:00 -5.2 -8.2 80 0.0 34 13 16.1 98.16   -10 LegendNANA
20:00 -5.8 -8.7 80 0.0 35 13 16.1 98.15   -11 LegendNANA
21:00 -7.5 -9.8 84 0.0 33 11 16.1 98.13   -13 LegendNANA
22:00 -7.2 -9.2 86 0.0 33 11 16.1 98.10   -12 LegendNANA
23:00 -7.2 -8.7 89 0.0 31 9 16.1 98.06   -12 LegendNANA

Notes on Data Quality.

Legend

  • E = Estimated
  • M = Missing
  • NA = Not Available*
  • [empty] = Indicates an unobserved value
Date modified: